Temperature
15 14 14 14 14 14 14 14 13 13 13 13 12 12 12 12 12 12 12 12 12 12 11 11 11 11 11 11 11 11 11 10 10 10 10 10 10 10 10 10 10 10 10
15 14 14 14 14 14 13 13 13 13 13 12 12 12 12 12 12 12 12 11 11 11 11 11 11 11 11 11 11 11 10 10 10 10 10 10 10 10 10 10 10 10 10
14 14 14 14 14 13 13 13 13 13 12 12 12 12 12 12 12 12 11 11 11 11 11 11 11 11 11 11 11 10 10 10 10 10 10 10 10 10 10 10 10 10 10
14 14 14 13 13 13 13 13 13 12 12 12 12 12 12 12 12 11 11 11 11 11 11 10 10 11 10 10 10 10 10 10 10 10 9 10 10 9 9 10 10 10 10
14 13 13 13 13 13 13 12 12 12 12 12 12 12 12 12 11 11 11 11 11 11 10 10 10 10 10 10 10 10 10 10 9 9 9 9 9 9 9 9 9 9 10
13 13 13 13 13 12 12 12 12 12 12 11 11 11 11 11 11 11 11 11 10 10 10 10 10 10 10 10 10 10 9 9 9 9 9 9 9 9 9 9 9 9 9
13 13 13 12 12 12 12 12 12 11 11 11 11 11 11 11 11 11 10 10 10 10 10 10 10 10 10 10 9 9 9 9 9 9 9 9 9 9 9 9 9 8 8
13 12 12 12 12 12 12 11 11 11 11 11 11 11 11 11 11 10 10 10 10 10 9 9 9 9 9 9 9 9 9 9 9 9 9 9 9 9 8 8 8 8 8
12 12 12 12 12 12 11 11 11 11 11 11 10 10 10 10 10 10 10 10 9 9 9 9 9 9 9 9 9 9 9 9 8 8 8 8 8 8 8 8 8 8 8
12 12 12 11 11 11 11 11 11 11 10 10 10 10 10 10 10 9 9 9 9 9 9 9 9 9 9 9 8 8 8 8 8 8 8 8 8 8 8 8 8 8 8
12 11 11 11 11 11 11 11 10 10 10 10 10 9 9 9 9 9 9 9 9 9 9 9 9 9 8 8 8 8 8 8 8 8 8 8 8 8 8 8 7 7 7
11 11 11 11 11 10 10 10 10 10 10 9 9 9 9 9 9 9 9 9 9 9 9 8 8 8 8 8 8 8 8 8 8 8 8 7 7 7 7 7 7 7 7
10 11 11 11 10 10 10 10 10 9 9 9 9 9 9 9 8 8 9 9 8 8 8 8 8 8 8 8 8 8 7 7 7 7 7 7 7 7 7 7 7 7 6
10 10 10 10 10 10 10 9 9 9 9 9 9 8 8 8 8 8 8 8 8 8 8 8 8 8 8 8 7 7 7 7 7 7 7 7 7 7 7 6 6 6 6
9 10 10 10 10 9 9 9 9 9 9 8 8 8 8 8 8 8 8 8 8 8 7 7 7 7 7 7 7 7 7 7 7 7 7 7 7 6 6 6 6 6 6
9 9 9 9 9 9 9 8 8 8 8 8 8 8 8 8 8 8 8 7 7 7 7 7 7 7 7 7 6 7 7 7 6 6 6 6 6 6 6 6 6 6 5
9 9 9 9 9 9 8 8 8 8 8 8 7 7 7 7 7 7 7 7 7 7 6 6 6 6 6 6 6 6 6 6 6 6 6 6 6 5 5 5 5 5 5
8 8 8 8 8 8 8 8 8 8 7 7 7 7 7 7 7 7 6 6 6 6 6 6 6 6 5 5 6 6 6 6 5 5 5 5 5 5 5 5 5 5 5
8 8 8 8 8 7 7 7 7 7 7 7 7 7 6 6 6 6 6 6 6 5 5 5 5 5 5 5 5 5 5 5 5 5 5 5 5 5 5 5 5 5 5
7 7 7 7 7 7 7 7 7 6 6 6 6 6 6 6 6 5 5 5 5 5 5 5 5 5 5 5 5 5 5 5 5 5 5 5 5 5 5 4 4 4 4
7 7 7 7 7 7 6 6 6 6 6 6 6 6 5 5 5 5 5 5 4 4 4 4 4 4 4 4 4 4 4 4 4 4 4 4 4 4 4 4 4 4 4
7 7 7 6 6 6 6 6 6 6 5 5 5 5 5 4 4 4 4 4 4 4 4 4 4 4 4 4 4 4 4 4 4 4 4 4 4 4 4 4 4 3 3
6 6 6 6 6 6 6 6 5 5 5 5 5 5 4 4 4 4 4 4 4 4 4 4 4 3 4 4 3 3 3 3 3 3 3 3 3 3 3 3 3 3 3
6 6 5 5 5 5 5 5 5 5 5 4 4 4 4 4 4 3 3 3 3 3 3 3 3 3 3 3 3 3 3 3 3 3 3 3 3 3 3 3 3 3 2
5 5 5 5 5 5 5 5 4 4 4 4 4 4 3 3 3 3 3 3 3 3 3 3 3 3 3 3 3 3 3 3 3 3 2 2 2 2 2 2 2 2 2
5 4 4 4 4 4 4 4 4 4 4 4 3 3 3 3 3 3 3 2 2 2 2 2 2 2 2 2 2 2 2 2 2 2 2 2 2 2 2 2 2 2 1
Wind_Speed
4 4 4 4 3 3 4 4 4 3 4 4 4 3 3 2 2 2 2 2 2 1 1 1 1 1 1 1 2 2 1 2 2 2 2 2 2 2 2 1 2 1 1
4 4 4 4 3 3 3 4 4 4 4 4 3 3 3 3 3 3 3 2 2 2 2 2 2 1 2 1 2 2 2 2 3 2 1 1 2 1 1 1 2 2 2
3 4 3 4 4 4 4 3 4 4 4 3 3 3 3 3 3 3 3 3 2 3 3 3 2 2 2 2 2 2 2 2 2 2 1 1 1 1 1 1 2 2 2
4 4 4 4 4 4 3 3 4 4 4 4 3 3 3 3 3 3 3 3 2 2 2 3 3 4 4 4 3 3 2 2 2 2 1 1 1 1 0 0 1 2 2
4 4 4 3 3 3 3 3 3 3 4 4 3 2 2 2 3 3 3 3 3 2 1 2 3 4 5 4 3 4 4 3 2 2 1 1 1 1 1 1 1 2 2
4 4 3 3 3 3 3 3 3 3 3 3 3 3 2 2 2 3 3 3 3 3 2 1 2 3 4 4 5 5 6 5 4 3 2 2 3 2 1 1 1 1 2
4 3 3 3 3 3 3 3 3 3 3 3 3 3 3 3 3 3 3 3 3 3 3 2 2 2 2 2 3 4 4 5 6 4 4 4 4 4 3 2 2 2 2
3 3 3 4 4 3 3 3 3 3 3 3 3 3 3 3 3 3 3 2 2 3 3 3 3 2 3 3 2 2 2 3 4 3 4 5 4 4 5 4 4 2 1
4 4 4 4 4 4 4 4 3 3 3 3 3 3 3 3 4 4 3 3 2 3 3 3 3 3 4 5 4 3 2 2 2 3 4 4 4 4 5 3 3 1 1
5 5 4 4 5 5 5 4 3 3 4 3 2 3 4 4 4 3 3 3 2 2 2 3 4 4 5 5 5 5 4 3 2 1 1 1 1 2 5 4 4 3 1
4 4 3 4 5 4 3 3 3 3 2 2 3 2 3 3 4 4 3 3 4 3 3 3 3 4 5 6 6 5 6 4 3 3 1 0 0 0 2 3 3 3 3
3 3 3 3 4 3 3 3 3 3 3 3 2 2 2 2 3 4 4 4 3 4 4 3 4 4 5 5 5 5 6 5 3 2 2 2 1 1 1 2 3 3 3
3 3 3 3 3 3 4 3 2 3 3 3 3 3 2 2 2 3 3 4 4 3 3 4 3 3 3 3 4 5 4 3 3 3 3 3 3 2 1 1 1 1 1
3 3 3 3 3 3 3 3 3 4 4 3 3 3 3 2 2 2 2 3 3 2 2 2 2 2 1 2 2 3 3 3 4 4 4 2 1 1 1 1 1 1 0
4 3 3 3 3 3 3 3 4 5 5 5 5 4 4 4 5 5 3 3 3 3 2 1 1 1 1 1 1 1 2 2 3 3 3 2 2 2 1 1 1 1 1
3 3 3 3 3 3 3 1 2 3 4 4 4 4 4 5 5 4 4 4 4 3 2 2 2 3 3 3 3 2 2 3 3 3 3 3 3 3 2 1 1 2 2
3 3 3 3 3 3 3 3 2 2 1 2 3 3 3 3 2 3 3 2 3 4 2 2 3 3 3 3 3 3 3 3 3 3 3 3 3 3 3 3 2 2 2
2 3 3 3 3 3 4 4 4 3 3 2 2 3 3 2 2 2 2 2 1 2 2 3 3 3 3 3 3 3 2 2 2 3 3 3 3 3 3 3 3 4 3
2 2 3 2 3 3 3 3 3 4 3 3 2 2 2 2 2 2 3 2 3 3 3 3 3 4 3 3 3 3 3 3 2 2 3 3 3 3 3 4 4 4 3
2 3 2 2 2 3 3 3 3 4 3 3 3 3 2 1 1 2 2 3 3 3 4 4 4 3 3 4 3 3 3 3 3 3 3 3 3 3 4 4 4 4 4
2 2 2 2 2 3 4 4 4 4 4 4 4 3 4 3 3 3 3 3 3 4 4 4 3 3 3 3 3 4 4 4 3 3 3 3 3 3 3 4 4 4 3
2 2 2 2 2 3 4 4 4 4 4 4 3 3 4 3 3 3 4 4 4 3 3 3 3 3 3 4 4 4 4 4 4 4 4 4 3 3 3 3 3 3 3
2 2 2 2 2 3 2 3 4 4 4 4 4 3 3 4 4 4 4 4 3 3 3 3 3 3 3 4 4 5 5 5 5 5 5 4 4 4 3 4 4 4 3
2 2 2 2 2 2 2 3 3 3 4 4 4 4 4 4 4 4 4 4 3 3 3 3 4 4 5 4 4 5 6 6 5 5 6 5 5 4 4 4 4 4 4
1 2 2 2 2 2 2 2 3 3 3 3 3 3 4 4 4 4 4 3 4 4 4 4 3 4 5 5 5 5 6 6 6 5 5 5 5 5 5 5 4 4 4
1 2 2 2 2 2 2 2 2 3 3 3 3 3 3 4 4 3 3 3 3 3 4 4 4 5 5 5 6 6 6 7 6 6 5 4 5 5 5 4 5 4 4
Wind_Direction
197 196 187 186 178 170 183 195 192 184 176 174 177 170 168 172 163 157 164 163 162 168 161 163 187 159 157 164 153 153 159 153 194 270 284 303 312 327 360 347 326 324 313
192 186 184 174 165 173 192 197 186 183 181 179 172 169 177 181 181 181 188 181 181 189 197 179 209 181 164 176 167 173 184 173 171 222 279 307 299 304 337 339 343 338 323
170 171 173 171 174 190 200 196 186 180 176 171 167 177 188 189 189 195 194 194 196 202 198 194 206 181 192 200 184 185 191 180 165 177 235 290 304 337 8 349 357 353 335
167 170 180 191 192 194 194 187 184 178 175 177 179 185 188 184 186 191 188 188 191 198 205 201 206 200 200 196 193 190 178 162 149 155 198 267 287 325 38 318 332 338 321
169 180 195 199 194 184 181 182 176 173 177 174 168 176 183 181 184 181 181 185 186 194 216 221 217 217 212 202 198 189 174 169 165 171 190 210 248 254 234 225 258 320 310
179 192 188 177 177 177 179 178 170 171 168 159 171 179 188 206 197 183 177 178 183 189 207 247 242 230 230 226 217 200 185 178 182 181 195 211 232 227 205 201 189 339 295
182 189 181 176 178 187 175 162 172 176 170 176 188 187 207 223 197 192 195 184 186 198 206 215 246 245 218 209 222 214 209 206 193 185 195 216 215 213 190 196 198 210 243
182 191 186 178 183 185 171 177 180 173 182 192 201 206 214 229 205 199 195 186 189 208 216 217 218 247 226 194 195 197 203 211 209 200 205 220 222 209 197 194 196 193 293
193 203 197 184 184 186 191 198 193 183 195 199 196 204 216 240 225 205 181 180 199 227 233 224 216 221 234 203 183 188 201 235 225 209 211 216 217 203 176 143 145 147 269
207 210 198 186 189 198 206 208 201 191 199 198 209 215 218 236 239 212 194 184 203 234 246 241 238 227 222 207 192 188 201 224 207 213 219 236 202 191 182 176 174 175 200
204 192 190 190 194 199 203 204 194 190 186 199 218 235 230 239 245 227 213 196 201 220 236 244 244 241 226 216 208 203 213 199 179 179 186 183 99 168 177 179 179 180 193
186 185 194 196 197 194 187 198 189 182 186 201 210 244 255 255 251 240 228 226 214 211 228 234 240 241 232 222 217 219 210 190 161 162 183 214 217 224 220 197 197 200 214
180 189 197 195 192 185 183 184 183 184 190 203 206 224 253 264 268 272 255 246 232 223 230 235 239 235 222 219 218 213 202 185 172 186 213 226 224 220 188 166 162 180 266
194 197 191 183 186 185 185 183 186 195 200 203 212 226 241 256 262 258 250 246 240 236 237 233 228 223 201 201 210 212 203 195 192 205 215 220 201 182 175 171 186 166 109
200 201 196 192 188 191 198 206 205 210 203 201 211 210 214 239 252 249 230 227 221 221 210 185 186 201 210 216 214 207 205 199 204 199 197 196 194 195 208 207 185 153 178
196 200 199 196 198 194 195 231 249 225 225 220 211 209 232 249 262 249 244 241 224 199 171 192 216 215 221 224 220 217 213 218 216 204 199 198 201 206 218 213 183 183 204
201 206 203 199 203 203 200 198 224 276 244 225 224 228 235 244 242 240 240 234 209 172 176 206 222 228 231 229 224 220 219 219 212 204 203 205 207 208 206 202 200 208 222
219 224 213 210 210 210 212 211 206 209 229 257 261 251 237 228 225 221 196 135 184 192 207 219 229 231 231 230 229 227 219 203 201 209 209 208 207 200 200 205 208 211 220
222 229 221 216 212 208 209 210 209 208 217 234 255 270 250 225 214 199 163 174 202 220 227 232 236 233 233 232 230 225 215 207 206 206 217 220 206 199 210 215 215 218 216
237 247 236 217 217 209 205 207 211 213 217 221 230 236 219 185 202 212 205 210 219 229 231 233 238 239 229 224 224 221 217 213 211 214 220 223 218 212 215 216 215 218 226
230 239 244 231 223 223 215 214 215 215 220 227 233 232 214 206 212 218 223 225 228 231 233 233 236 239 231 220 217 218 219 223 219 219 221 223 221 224 226 219 214 216 222
210 228 229 231 235 237 233 219 216 219 222 226 234 234 221 216 216 220 227 235 235 232 231 227 231 232 227 222 216 216 221 225 223 220 222 221 221 223 222 218 215 215 218
205 229 244 248 244 247 245 229 218 219 224 226 223 218 215 219 223 226 230 234 230 229 231 227 230 235 237 229 221 215 220 228 227 216 213 216 215 218 219 220 220 219 223
206 218 233 244 243 235 239 241 233 226 222 224 226 222 220 222 226 229 231 232 231 233 233 232 229 233 234 234 228 227 231 236 230 217 211 213 215 214 216 220 222 226 228
212 225 230 233 237 240 247 246 241 238 233 232 231 230 227 227 229 231 229 226 228 233 235 236 239 236 234 236 235 236 239 237 231 223 213 211 213 216 217 220 222 225 230
220 231 238 237 237 237 235 238 244 248 243 240 236 232 231 230 230 232 228 224 227 231 234 238 237 236 237 238 239 239 238 233 226 220 211 207 210 215 217 221 222 224 228
Height
1504 1505 1506 1507 1509 1510 1511 1511 1512 1513 1514 1514 1515 1515 1516 1516 1516 1517 1517 1517 1517 1517 1517 1518 1517 1518 1518 1518 1518 1518 1518 1519 1518 1518 1519 1519 1519 1519 1519 1519 1519 1519 1519
1501 1503 1504 1505 1506 1506 1507 1508 1509 1510 1511 1511 1512 1513 1513 1514 1514 1514 1514 1514 1514 1514 1515 1515 1515 1515 1515 1516 1516 1516 1516 1517 1517 1516 1516 1517 1517 1517 1517 1518 1518 1518 1518
1499 1500 1501 1502 1503 1503 1504 1505 1506 1507 1508 1509 1510 1510 1510 1511 1511 1511 1511 1512 1512 1512 1512 1513 1513 1513 1513 1513 1513 1514 1514 1515 1515 1514 1514 1515 1515 1515 1515 1516 1516 1516 1516
1496 1497 1498 1499 1499 1501 1501 1502 1503 1504 1505 1506 1507 1507 1508 1508 1508 1508 1509 1509 1509 1509 1510 1510 1510 1510 1510 1511 1511 1511 1512 1512 1512 1512 1512 1512 1513 1513 1513 1513 1513 1514 1514
1494 1495 1495 1496 1497 1498 1498 1499 1500 1501 1502 1503 1504 1504 1505 1505 1505 1506 1506 1506 1506 1506 1507 1507 1507 1508 1508 1508 1508 1508 1509 1509 1510 1510 1510 1510 1510 1511 1511 1511 1511 1511 1512
1491 1492 1493 1493 1494 1495 1496 1497 1497 1498 1499 1500 1501 1501 1502 1502 1502 1503 1503 1503 1503 1503 1503 1504 1504 1504 1505 1505 1505 1506 1506 1507 1507 1507 1508 1508 1508 1508 1509 1509 1509 1509 1509
1489 1489 1490 1491 1492 1492 1493 1494 1495 1495 1496 1497 1498 1498 1499 1499 1499 1500 1500 1500 1500 1500 1500 1501 1501 1501 1501 1502 1502 1503 1504 1504 1505 1505 1505 1505 1506 1506 1506 1506 1507 1507 1507
1486 1487 1487 1488 1489 1490 1491 1492 1492 1493 1493 1494 1494 1495 1495 1496 1496 1497 1497 1497 1497 1497 1497 1497 1497 1497 1498 1498 1499 1500 1500 1501 1502 1502 1503 1503 1503 1504 1504 1505 1505 1505 1505
1483 1484 1485 1486 1487 1487 1488 1489 1489 1490 1490 1490 1491 1491 1492 1492 1493 1493 1494 1493 1493 1494 1494 1494 1494 1494 1494 1495 1496 1496 1497 1498 1498 1499 1499 1500 1500 1501 1501 1501 1502 1502 1501
1480 1481 1482 1483 1484 1484 1485 1486 1486 1487 1487 1487 1488 1488 1489 1489 1490 1490 1490 1490 1490 1490 1490 1490 1490 1490 1491 1491 1492 1492 1493 1494 1495 1496 1496 1497 1497 1498 1498 1498 1498 1499 1498
1477 1478 1479 1480 1481 1481 1482 1482 1483 1483 1484 1484 1485 1485 1485 1486 1486 1486 1487 1487 1486 1486 1486 1486 1486 1487 1487 1488 1488 1489 1490 1491 1492 1492 1493 1493 1494 1494 1494 1495 1495 1496 1495
1474 1475 1476 1477 1478 1478 1478 1479 1479 1480 1480 1480 1481 1481 1482 1482 1483 1483 1483 1483 1483 1483 1482 1482 1483 1483 1483 1484 1485 1485 1486 1488 1488 1489 1489 1489 1490 1490 1491 1492 1492 1492 1493
1471 1471 1472 1473 1474 1475 1475 1475 1476 1476 1476 1477 1477 1477 1478 1479 1479 1479 1479 1479 1479 1479 1479 1479 1479 1479 1479 1480 1481 1482 1483 1483 1484 1484 1485 1486 1487 1487 1488 1488 1488 1489 1489
1467 1468 1469 1469 1470 1471 1472 1472 1472 1472 1473 1473 1474 1474 1474 1474 1475 1475 1475 1475 1475 1475 1475 1475 1476 1476 1476 1476 1477 1478 1478 1479 1480 1480 1481 1482 1483 1484 1484 1484 1485 1485 1485
1464 1465 1465 1465 1466 1467 1468 1468 1469 1469 1470 1470 1470 1470 1470 1470 1470 1471 1470 1470 1470 1470 1471 1471 1471 1471 1471 1472 1472 1473 1474 1475 1476 1476 1477 1478 1479 1479 1480 1481 1481 1482 1482
1460 1461 1461 1461 1462 1463 1464 1464 1465 1466 1466 1467 1467 1467 1466 1467 1467 1466 1466 1466 1466 1466 1466 1466 1466 1466 1467 1467 1468 1468 1469 1470 1471 1472 1472 1473 1474 1475 1476 1477 1478 1478 1478
1456 1457 1457 1458 1458 1459 1459 1460 1460 1461 1462 1462 1463 1463 1463 1462 1462 1462 1462 1462 1462 1462 1462 1462 1462 1462 1463 1463 1463 1464 1464 1465 1466 1467 1468 1468 1469 1471 1471 1472 1473 1474 1474
1453 1453 1454 1454 1454 1454 1455 1455 1456 1456 1456 1457 1458 1458 1458 1458 1458 1458 1458 1458 1457 1458 1458 1457 1458 1458 1458 1458 1459 1459 1460 1461 1462 1462 1463 1464 1465 1466 1467 1468 1469 1470 1470
1449 1449 1450 1450 1450 1450 1451 1451 1451 1452 1452 1452 1452 1453 1454 1454 1453 1453 1453 1453 1452 1453 1453 1453 1453 1453 1454 1454 1455 1455 1456 1456 1457 1458 1459 1459 1460 1461 1462 1464 1465 1466 1466
1446 1446 1446 1446 1446 1446 1446 1446 1447 1447 1447 1447 1447 1448 1448 1448 1448 1448 1448 1448 1448 1448 1448 1449 1449 1449 1449 1450 1450 1451 1452 1452 1453 1454 1454 1455 1456 1457 1458 1459 1460 1461 1461
1443 1442 1442 1442 1442 1442 1442 1442 1442 1442 1442 1442 1442 1443 1444 1444 1443 1443 1443 1444 1444 1444 1444 1444 1444 1445 1445 1445 1446 1446 1447 1448 1448 1449 1450 1451 1452 1452 1453 1454 1455 1456 1457
1439 1439 1438 1438 1437 1437 1437 1437 1437 1437 1437 1437 1438 1438 1439 1439 1439 1438 1439 1439 1439 1439 1439 1439 1439 1440 1440 1441 1441 1442 1442 1443 1444 1445 1445 1446 1447 1448 1449 1449 1450 1451 1452
1436 1435 1435 1434 1434 1433 1432 1432 1432 1432 1432 1433 1433 1433 1433 1433 1433 1434 1434 1434 1434 1434 1434 1435 1435 1435 1436 1436 1437 1437 1438 1439 1440 1440 1441 1441 1442 1443 1444 1444 1445 1446 1447
1432 1432 1431 1430 1430 1429 1428 1427 1427 1428 1428 1428 1428 1428 1428 1428 1429 1429 1429 1429 1430 1430 1430 1430 1430 1430 1431 1432 1432 1433 1434 1435 1435 1436 1436 1437 1437 1438 1439 1440 1441 1441 1442
1429 1428 1428 1427 1426 1425 1424 1424 1424 1424 1424 1424 1423 1423 1424 1424 1424 1424 1425 1425 1425 1425 1425 1425 1425 1426 1427 1427 1427 1428 1429 1430 1430 1431 1432 1432 1433 1433 1434 1435 1436 1436 1437
1426 1425 1424 1423 1422 1422 1421 1421 1420 1420 1420 1419 1419 1419 1419 1419 1419 1419 1420 1420 1420 1420 1421 1421 1421 1421 1422 1422 1423 1423 1424 1425 1425 1426 1427 1427 1428 1429 1429 1430 1431 1432 1433